Regional Weather Roundup
Issued by NWS

Home | Current Version | Previous Version | Text Only | Print | Product List | Glossary Off
Versions: 1 2 3 4 5 6 7 8 9 10 11 12 13 14 15 16 17 18 19 20 21 22 23 24 25 26 27 28 29 30 31 32 33 34 35 36 37 38 39 40 41 42 43 44 45 46 47 48 49 50

000
ASUS43 KLSX 280159
RWRMO

WEATHER SUMMARY FOR MISSOURI
NATIONAL WEATHER SERVICE SPRINGFIELD MO
900 PM CDT MON APR 27 2015

NOTE: "FAIR" INDICATES FEW OR NO CLOUDS BELOW 12,000 FEET WITH NO
       SIGNIFICANT WEATHER AND/OR OBSTRUCTIONS TO VISIBILITY.
       CURRENT SKY AND/OR WEATHER CONDITIONS ARE NOT AVAILABLE FOR
       CHILLICOTHE AND FARMINGTON.

MOZ001>031-035>038-043-044-053-054-280300-
...NORTHERN AND WESTERN MISSOURI...

CITY           SKY/WX    TMP DP  RH WIND       PRES   REMARKS
KANSAS CTY INT MOCLDY    58  35  42 E5        30.09R
KANSAS C DTWN  PTCLDY    59  37  44 N5        30.07R
LEE`S SUMMIT   MOCLDY    58  36  43 NE5       30.08R
ST JOSEPH      MOCLDY    55  38  52 N7        30.10R
CHILLICOTHE      N/A     56  40  55 NE3       30.10R
KIRKSVILLE     CLEAR     54  39  57 NE6       30.10R

$$
MOZ066>068-077>081-088>096-101>105-280300-
...SOUTHWEST MISSOURI...

CITY           SKY/WX    TMP DP  RH WIND       PRES   REMARKS
SPRINGFIELD    CLOUDY    56  36  47 NE8       30.02R
JOPLIN         CLOUDY    56  40  55 NE7       30.03R

$$
MOZ032>034-039>042-045>050-055>058-069>072-280300-
...CENTRAL MISSOURI...

CITY           SKY/WX    TMP DP  RH WIND       PRES   REMARKS
COLUMBIA       PTCLDY    55  38  52 NE8       30.07R
JEFFERSON CITY PTCLDY    60  35  39 N6        30.06R
ROLLA          MOCLDY    54  35  48 NE5       30.04
SEDALIA        PTCLDY    58  36  43 NE6       30.08R
OSAGE BEACH    MOCLDY    57  34  41 NE5       30.06R

$$
MOZ051-052-059>065-280300-
...EAST CENTRAL MISSOURI...

CITY           SKY/WX    TMP DP  RH WIND       PRES   REMARKS
ST LOUIS INTL  PTCLDY    59  36  42 NE7       30.06R
SPIRIT OF STL  PTCLDY    54  38  54 CALM      30.05R
ST CHARLES     CLEAR     56  37  49 NE8       30.06R

$$
MOZ072>076-082>087-097>100-106>115-280300-
...SOUTH CENTRAL AND SOUTHEAST MISSOURI...

CITY           SKY/WX    TMP DP  RH WIND       PRES   REMARKS
CAPE GIRARDEAU MOCLDY    58  41  53 NE8       30.02R
FARMINGTON     MOCLDY    55  39  54 NE6       30.08R
POPLAR BLUFF   MOCLDY    56  41  57 N5        30.01R
WEST PLAINS    MOCLDY    56  32  40 E6        30.03R

$$


USA.gov is the U.S. government's official web portal to all federal, state and local government web resources and services.